[Iaude] MPEC U47: 2016 TQ93 [a=2.27,e=0.49,i=10.7,H=20.7]

mpec at si.edu mpec at si.edu
Sun Oct 23 13:38:17 EDT 2016


M.P.E.C. 2016-U47                                Issued 2016 Oct. 23, 17:32 UT
 
     The Minor Planet Electronic Circulars contain information on unusual
         minor planets and routine data on comets.  They are published
    on behalf of Division F of the International Astronomical Union by the
          Minor Planet Center, Smithsonian Astrophysical Observatory,
                          Cambridge, MA 02138, U.S.A.

             Prepared using the Tamkin Foundation Computer Network

                              MPC at CFA.HARVARD.EDU
            URL http://www.minorplanetcenter.net/    ISSN 1523-6714


                                   2016 TQ93
 
Observations:
     K16T93Q* C2016 10 09.50768 03 40 37.645-05 00 41.15         21.7 wLEU047F51
     K16T93Q  C2016 10 09.51979 03 40 36.886-05 00 48.75         22.1 wLEU047F51
     K16T93Q  C2016 10 09.54406 03 40 35.385-05 01 04.40         22.2 wLEU047F51
     K16T93Q KC2016 10 10.51018 03 39 38.64 -05 11 15.8          21.0 RoEU047291
     K16T93Q KC2016 10 10.51469 03 39 38.34 -05 11 18.7          21.1 RoEU047291
     K16T93Q KC2016 10 10.51918 03 39 38.08 -05 11 20.9          20.8 RoEU047291
     K16T93Q _C2016 10 10.57613703 39 34.901-05 11 54.66         21.6 RUEU047568
     K16T93Q _C2016 10 10.57717703 39 34.833-05 11 55.33         21.7 RUEU047568
     K16T93Q _C2016 10 10.57821103 39 34.767-05 11 55.96         21.6 RUEU047568
     K16T93Q KC2016 10 11.36521903 38 47.19 -05 20 03.6          22.0 VuEU047H21
     K16T93Q KC2016 10 11.37822403 38 46.34 -05 20 11.1          22.0 VuEU047H21
     K16T93Q KC2016 10 11.38600803 38 45.82 -05 20 15.8          22.1 VuEU047H21
     K16T93Q KC2016 10 23.37416 03 24 13.35 -06 56 41.0                oEU047291
     K16T93Q KC2016 10 23.37993 03 24 12.84 -06 56 42.8                oEU047291
 
Observer details:
291 LPL/Spacewatch II.  Observers R. S. McMillan, T. H. Bressi.  1.8-m f/2.7
    reflector + CCD.
568 Mauna Kea.  Observers R. J. Wainscoat, R. Weryk, C. Wipper.  Measurers
    M. Micheli, R. Weryk.  3.6-m Canada-France-Hawaii Telescope + CCD.
F51 Pan-STARRS 1, Haleakala.  Observers B. Gibson, T. Goggia, S. Kahale,
    A. Schultz, M. Willman.  Measurers K. Chambers, S. Chastel, L. Denneau,
    H. Flewelling, M. Huber, E. Lilly, E. Magnier, R. Wainscoat, C. Waters,
    R. Weryk.  1.8-m Ritchey-Chretien + CCD.
H21 Astronomical Research Observatory, Westfield.  Observer R. Holmes.
    Measurers S. Foglia, L. Buzzi, T. Linder, R. Holmes.  0.81-m f/4.0
    astrograph + CCD.
 
Orbital elements:
2016 TQ93                                                Earth MOID = 0.1372 AU
Epoch 2016 July 31.0 TT = JDT 2457600.5                 MPC
M   8.90624              (2000.0)            P               Q
n   0.28808965     Peri.  170.41004     +0.65748639     +0.74410995
a   2.2704796      Node   140.55762     -0.70305241     +0.66237707
e   0.4939077      Incl.   10.73837     -0.27097778     +0.08693100
P   3.42           H   20.7           G   0.15           U   6
Residuals in seconds of arc
161009 F51  0.0   0.1-    161010 291  0.3+  0.4+    161011 H21  0.0   0.0
161009 F51  0.1-  0.1+    161010 568  0.1-  0.0     161011 H21  0.2-  0.0
161009 F51  0.1+  0.0     161010 568  0.1-  0.1-    161023 291  0.1+  0.1-
161010 291  0.1+  0.0     161010 568  0.1-  0.1-    161023 291  0.1-  0.1+
161010 291  0.1-  0.1-    161011 H21  0.1-  0.4-

Ephemeris:
2016 TQ93                a,e,i = 2.27, 0.49, 11                  q = 1.1491
Date    TT    R. A. (2000) Decl.     Delta      r     Elong.  Phase     V
2016 09 23    03 49 30.6 -01 38 44   0.6563  1.4663   122.8    35.1    22.1
...
2016 10 08    03 42 00.6 -04 44 13   0.6726  1.5598   137.0    25.9    22.0
...
2016 10 16    03 33 38.8 -06 03 25   0.6918  1.6109   144.5    21.1    22.0
...
2016 10 22    03 26 03.9 -06 48 18   0.7126  1.6496   149.6    17.8    22.0
2016 10 23    03 24 43.7 -06 54 23   0.7167  1.6561   150.3    17.3    22.0
2016 10 24    03 23 22.6 -07 00 03   0.7210  1.6626   151.0    16.8    22.0
...
2016 10 30    03 15 05.5 -07 24 50   0.7506  1.7014   154.5    14.6    22.0
...
2016 11 07    03 04 14.6 -07 32 45   0.8014  1.7533   155.9    13.3    22.2
...
2016 11 22    02 47 41.9 -06 37 23   0.9318  1.8501   149.1    15.9    22.7

A. U. Tomatic                (C) Copyright 2016 MPC           M.P.E.C. 2016-U47




More information about the Iaude mailing list